sat.trackr.live / text

‹ back to catalog

STARLINK-32917

NORAD 62921 · 2025-027Q

PAYLOAD ACTIVE UNKNOWN

§ Identity

Operator
Country
US
Launch date
2025-02-08
Launch site
AFETR
Launch vehicle
Mass (kg)
RCS (m²)

Purposes: comms

External: N2YO · Heavens-Above · Gunter

§ Orbital elements

Epoch: 2026-05-25T03:20:32.940960Z

Period
94.27 min
Inclination
43.0041°
Eccentricity
0.0001495
Mean motion
15.27568390 rev/d
Perigee alt
482.1 km
Apogee alt
484.1 km
Semi-major
6,861.2 km
B*
1.0113e-3
RAAN
57.1754°
Arg perigee
258.3009°
Mean anomaly
101.7675°
Rev number
7,323

§ Raw data

STARLINK-329171 62921U 25027Q   26145.13927015  .00027662  00000+0  10113-2 0  99922 62921  43.0041  57.1754 0001495 258.3009 101.7675 15.27568390 73237

JSON: /api/v1/satellites/62921 · /tle

For live sub-satellite position, see the globe view (requires WebGL).

§ Visibility from observer

Set your observer location to see the next 7 days of passes ≥ 10°. The values pass through the URL so the page stays shareable.

No JS? Fill the form by hand. The geolocation button needs JavaScript.